Time,TemperatureF,DewpointF,PressureIn,WindDirection,WindDirectionDegrees,WindSpeedMPH,WindSpeedGustMPH,Humidity,HourlyPrecipIn,Conditions,Clouds,dailyrainin,SoftwareType,DateUTC
2013-10-07 00:13:00,81.0,72.0,29.88,South,174,2.0,5.0,74,0.00,,,0.02,,2013-10-07 04:13:00,
2013-10-07 00:24:00,81.0,72.0,29.88,South,174,3.0,7.0,75,0.00,,,0.02,,2013-10-07 04:24:00,
2013-10-07 00:53:00,81.0,72.0,29.88,South,173,4.0,7.0,75,0.00,,,0.02,,2013-10-07 04:53:00,
2013-10-07 01:23:00,80.0,72.0,29.86,SSE,165,0.0,1.0,76,0.00,,,0.02,,2013-10-07 05:23:00,
2013-10-07 01:43:00,80.0,72.0,29.86,SSE,165,0.0,1.0,76,0.00,,,0.02,,2013-10-07 05:43:00,
2013-10-07 01:52:00,80.0,72.0,29.86,SSE,165,0.0,5.0,77,0.00,,,0.02,,2013-10-07 05:52:00,
2013-10-07 02:22:00,80.0,72.0,29.85,SSE,162,0.0,2.0,77,0.00,,,0.02,,2013-10-07 06:22:00,
2013-10-07 02:42:00,79.0,72.0,29.85,SSE,162,0.0,0.0,78,0.00,,,0.02,,2013-10-07 06:42:00,
2013-10-07 02:52:00,79.0,71.0,29.85,SSE,162,0.0,0.0,77,0.00,,,0.02,,2013-10-07 06:52:00,
2013-10-07 03:22:00,79.0,72.0,29.84,SSE,162,0.0,1.0,79,0.00,,,0.02,,2013-10-07 07:22:00,
2013-10-07 03:42:00,79.0,72.0,29.84,SSE,162,0.0,3.0,80,0.00,,,0.02,,2013-10-07 07:42:00,
2013-10-07 03:52:00,79.0,72.0,29.84,SSE,162,1.0,5.0,80,0.00,,,0.02,,2013-10-07 07:52:00,
2013-10-07 04:21:00,79.0,72.0,29.84,SSE,163,0.0,3.0,79,0.00,,,0.02,,2013-10-07 08:21:00,
2013-10-07 04:52:00,78.0,71.0,29.83,SSE,163,0.0,1.0,79,0.00,,,0.02,,2013-10-07 08:52:00,
2013-10-07 05:22:00,78.0,72.0,29.83,SSE,168,0.0,1.0,81,0.00,,,0.00,,2013-10-07 09:22:00,
2013-10-07 05:53:00,78.0,72.0,29.83,SSE,168,0.0,1.0,82,0.00,,,0.00,,2013-10-07 09:53:00,
2013-10-07 06:23:00,78.0,72.0,29.84,SSE,168,0.0,1.0,83,0.00,,,0.00,,2013-10-07 10:23:00,
2013-10-07 06:53:00,78.0,73.0,29.84,SSE,168,0.0,1.0,84,0.00,,,0.00,,2013-10-07 10:53:00,
2013-10-07 07:22:00,78.0,73.0,29.85,SSE,168,0.0,6.0,85,0.00,,,0.00,,2013-10-07 11:22:00,
2013-10-07 07:42:00,78.0,73.0,29.86,SSE,168,0.0,1.0,84,0.00,,,0.00,,2013-10-07 11:42:00,
2013-10-07 07:52:00,78.0,73.0,29.86,SSE,168,0.0,0.0,84,0.00,,,0.00,,2013-10-07 11:52:00,
2013-10-07 08:22:00,78.0,73.0,29.87,SSE,168,0.0,1.0,85,0.00,,,0.00,,2013-10-07 12:22:00,
2013-10-07 08:43:00,78.0,73.0,29.87,SSE,168,0.0,4.0,85,0.00,,,0.00,,2013-10-07 12:43:00,
2013-10-07 08:52:00,79.0,74.0,29.87,South,171,3.0,5.0,84,0.00,,,0.00,,2013-10-07 12:52:00,
2013-10-07 09:11:00,79.0,73.0,29.87,South,178,3.0,7.0,83,0.00,,,0.00,,2013-10-07 13:11:00,
2013-10-07 09:22:00,80.0,73.0,29.87,South,173,3.0,8.0,80,0.00,,,0.00,,2013-10-07 13:22:00,
2013-10-07 09:42:00,81.0,74.0,29.88,SSE,164,5.0,9.0,79,0.00,,,0.00,,2013-10-07 13:42:00,
2013-10-07 09:52:00,81.0,74.0,29.88,SSE,167,5.0,8.0,79,0.00,,,0.00,,2013-10-07 13:52:00,
2013-10-07 10:11:00,82.0,74.0,29.88,South,173,4.0,11.0,77,0.00,,,0.00,,2013-10-07 14:11:00,
2013-10-07 10:22:00,82.0,73.0,29.88,South,171,7.0,11.0,75,0.00,,,0.00,,2013-10-07 14:22:00,
2013-10-07 10:42:00,83.0,74.0,29.88,South,186,6.0,10.0,74,0.00,,,0.00,,2013-10-07 14:42:00,
2013-10-07 10:52:00,83.0,74.0,29.88,South,184,5.0,11.0,75,0.00,,,0.00,,2013-10-07 14:52:00,
2013-10-07 11:22:00,84.0,74.0,29.88,South,190,7.0,10.0,72,0.00,,,0.00,,2013-10-07 15:22:00,
2013-10-07 11:43:00,84.0,73.0,29.88,South,175,7.0,10.0,70,0.00,,,0.00,,2013-10-07 15:43:00,
2013-10-07 11:53:00,85.0,74.0,29.87,South,176,5.0,11.0,70,0.00,,,0.00,,2013-10-07 15:53:00,
2013-10-07 12:23:00,86.0,73.0,29.86,SSW,192,3.0,10.0,65,0.00,,,0.00,,2013-10-07 16:23:00,
2013-10-07 12:53:00,87.0,74.0,29.85,East,85,3.0,11.0,65,0.00,,,0.00,,2013-10-07 16:53:00,
2013-10-07 13:22:00,87.0,71.0,29.84,South,188,6.0,10.0,60,0.00,,,0.00,,2013-10-07 17:22:00,
2013-10-07 13:52:00,85.0,76.0,29.83,SE,131,7.0,12.0,75,0.00,,,0.00,,2013-10-07 17:52:00,
2013-10-07 14:22:00,84.0,76.0,29.82,SSE,149,3.0,14.0,77,0.00,,,0.00,,2013-10-07 18:22:00,
2013-10-07 14:52:00,85.0,76.0,29.81,SE,139,5.0,10.0,75,0.00,,,0.00,,2013-10-07 18:52:00,
2013-10-07 15:22:00,85.0,76.0,29.80,SSE,167,6.0,17.0,74,0.00,,,0.00,,2013-10-07 19:22:00,
2013-10-07 15:32:00,85.0,76.0,29.80,SSE,167,6.0,17.0,74,0.00,,,0.00,,2013-10-07 19:32:00,
2013-10-07 15:52:00,85.0,77.0,29.79,SE,132,5.0,14.0,76,0.00,,,0.00,,2013-10-07 19:52:00,
2013-10-07 16:22:00,87.0,74.0,29.79,NW,307,1.0,9.0,65,0.00,,,0.00,,2013-10-07 20:22:00,
2013-10-07 16:52:00,84.0,73.0,29.80,NNW,332,3.0,10.0,70,0.00,,,0.00,,2013-10-07 20:52:00,
2013-10-07 17:23:00,81.0,72.0,29.82,NNW,346,1.0,5.0,73,0.00,,,0.00,,2013-10-07 21:23:00,
2013-10-07 17:55:00,81.0,72.0,29.81,NNW,346,1.0,4.0,75,0.00,,,0.00,,2013-10-07 21:55:00,
2013-10-07 18:24:00,81.0,73.0,29.82,NNW,346,2.0,6.0,76,0.00,,,0.00,,2013-10-07 22:24:00,
2013-10-07 18:53:00,80.0,73.0,29.82,North,355,0.0,1.0,80,0.01,,,0.01,,2013-10-07 22:53:00,
2013-10-07 19:22:00,77.0,72.0,29.86,NNW,342,0.0,4.0,86,0.50,,,0.50,,2013-10-07 23:22:00,
2013-10-07 19:52:00,75.0,71.0,29.84,NW,322,0.0,1.0,88,0.56,,,0.57,,2013-10-07 23:52:00,
2013-10-07 20:22:00,75.0,72.0,29.84,NW,322,0.0,1.0,90,0.09,,,0.60,,2013-10-08 00:22:00,
2013-10-07 20:52:00,75.0,72.0,29.85,NW,322,0.0,1.0,91,0.02,,,0.60,,2013-10-08 00:52:00,
2013-10-07 21:21:00,76.0,73.0,29.86,NW,322,0.0,0.0,91,0.00,,,0.60,,2013-10-08 01:21:00,
2013-10-07 21:52:00,76.0,74.0,29.86,NW,322,0.0,1.0,92,0.00,,,0.60,,2013-10-08 01:52:00,
2013-10-07 22:22:00,76.0,74.0,29.87,NW,322,0.0,0.0,92,0.00,,,0.60,,2013-10-08 02:22:00,
2013-10-07 22:52:00,76.0,74.0,29.87,NW,322,0.0,0.0,92,0.00,,,0.60,,2013-10-08 02:52:00,
2013-10-07 23:22:00,76.0,74.0,29.87,NW,322,0.0,2.0,92,0.00,,,0.60,,2013-10-08 03:22:00,
2013-10-07 23:55:00,76.0,74.0,29.86,NW,322,0.0,0.0,92,0.00,,,0.60,,2013-10-08 03:55:00,